カタログに戻る

COURIER 1B

運用中軍事LEO
NORAD 58·PAYLOAD·🇺🇸 United States

打ち上げ Oct 4, 1960 から Cape Canaveral Space Force Station

Loading…

次のパス (今後24時間)

TLE

最新Source: Space-Track

元期: Sep 5, 2026, 15:11 UTC

1 00058U 60013A   26248.63295037  .00000094  00000-0  11015-4 0  9995
2 00058  28.3269  91.5327 0164872 153.9716 206.9226 13.46432364244915

AllMySatでCOURIER 1Bをリアルタイム追跡

Download on the App Store